GW3968 Weather Reports


time (UTC)temp
C
wind
direction
speed
KPH
gust
KPH
rain 1hr
cm
rain 24hr
cm
rain mn
cm
humidity
%
barometer
mb
20260504214816 18 301 4.8 4.8 0.00 0.00 0.00 58 1014.2
20260504214314 18 293 8.0 11.3 0.00 0.00 0.00 58 1013.9
20260504213810 18 343 8.0 9.7 0.00 0.00 0.00 56 1013.9
20260504213306 19 355 6.4 8.0 0.00 0.00 0.00 55 1014.1
20260504212804 20 20 11.3 17.7 0.00 0.00 0.00 54 1014.1
20260504212300 18 327 8.0 11.3 0.00 0.00 0.00 55 1014.0
20260504211758 19 324 8.0 11.3 0.00 0.00 0.00 56 1014.1
20260504211253 18 210 4.8 4.8 0.00 0.00 0.00 55 1014.0
20260504210751 19 220 4.8 8.0 0.00 0.00 0.00 56 1014.2
20260504210248 20 297 4.8 4.8 0.00 0.00 0.00 52 1014.1
20260504205745 20 317 9.7 11.3 0.00 0.00 0.00 53 1014.3
20260504205243 20 248 3.2 4.8 0.00 0.00 0.00 55 1014.2
20260504204741 20 287 4.8 4.8 0.00 0.00 0.00 53 1014.2
20260504204239 20 198 0.0 1.6 0.00 0.00 0.00 54 1014.0
20260504203738 18 190 1.6 1.6 0.00 0.00 0.00 56 1014.0
20260504203235 18 293 8.0 9.7 0.00 0.00 0.00 57 1014.3
20260504202735 19 316 4.8 4.8 0.00 0.00 0.00 58 1013.8
20260504202232 18 319 8.0 11.3 0.00 0.00 0.00 59 1014.2
20260504201729 18 294 8.0 11.3 0.00 0.00 0.00 60 1014.0
20260504201226 17 302 8.0 11.3 0.00 0.00 0.00 62 1014.2
20260504200724 17 306 4.8 4.8 0.00 0.00 0.00 62 1014.1
20260504200220 18 296 6.4 8.0 0.00 0.00 0.00 62 1014.1
20260504195716 18 297 6.4 9.7 0.00 0.00 0.00 61 1013.9
20260504195212 18 334 6.4 9.7 0.00 0.00 0.00 60 1014.1
20260504194709 18 298 4.8 8.0 0.00 0.00 0.00 60 1014.0
20260504194206 18 329 4.8 4.8 0.00 0.00 0.00 59 1013.8
20260504193702 18 304 4.8 4.8 0.00 0.00 0.00 58 1013.9
20260504193200 18 318 6.4 8.0 0.00 0.00 0.00 57 1014.2
20260504192658 18 321 4.8 4.8 0.00 0.00 0.00 57 1014.1
20260504192155 18 300 3.2 3.2 0.00 0.00 0.00 58 1013.9
20260504191654 18 290 1.6 3.2 0.00 0.00 0.00 59 1014.0
20260504191149 17 290 1.6 1.6 0.00 0.00 0.00 62 1014.2
20260504190646 17 311 4.8 8.0 0.00 0.00 0.00 61 1014.1
20260504190143 17 297 3.2 4.8 0.00 0.00 0.00 62 1014.2
20260504185639 17 293 3.2 4.8 0.00 0.00 0.00 63 1013.9
20260504185136 18 306 8.0 9.7 0.00 0.00 0.00 61 1013.9
20260504184632 18 289 4.8 4.8 0.00 0.00 0.00 57 1014.1
20260504184127 19 259 1.6 1.6 0.00 0.00 0.00 57 1014.1
20260504183624 19 261 1.6 1.6 0.00 0.00 0.00 58 1014.2
20260504183122 19 235 4.8 4.8 0.00 0.00 0.00 55 1014.2
20260504182619 19 247 3.2 8.0 0.00 0.00 0.00 57 1014.2
20260504182117 18 277 1.6 3.2 0.00 0.00 0.00 56 1014.3
20260504181614 18 295 3.2 3.2 0.00 0.00 0.00 59 1014.2
20260504181111 19 282 4.8 4.8 0.00 0.00 0.00 53 1014.4
20260504180610 20 243 1.6 1.6 0.00 0.00 0.00 52 1014.3
20260504180109 20 252 1.6 1.6 0.00 0.00 0.00 50 1014.3
20260504175606 20 257 1.6 3.2 0.00 0.00 0.00 52 1014.3
20260504175102 19 259 0.0 1.6 0.00 0.00 0.00 52 1014.5
20260504174600 18 286 1.6 1.6 0.00 0.00 0.00 57 1014.2
20260504174057 18 200 1.6 1.6 0.00 0.00 0.00 56 1014.4
20260504173553 18 212 4.8 4.8 0.00 0.00 0.00 57 1014.3
20260504173051 18 223 0.0 0.0 0.00 0.00 0.00 56 1014.4
20260504172547 18 258 3.2 3.2 0.00 0.00 0.00 55 1014.2
20260504172044 18 296 1.6 1.6 0.00 0.00 0.00 57 1014.2
20260504171541 17 310 1.6 1.6 0.00 0.00 0.00 60 1014.3
20260504171038 17 3 3.2 4.8 0.00 0.00 0.00 61 1014.1
20260504170533 17 303 1.6 1.6 0.00 0.00 0.00 60 1014.3
20260504150917 14 172 1.6 1.6 0.00 0.00 0.00 74 1014.2
20260504150414 13 171 3.2 3.2 0.00 0.00 0.00 75 1014.1
20260504140841 10 154 6.4 8.0 0.00 0.00 0.00 84 1013.7
20260504140336 10 180 3.2 4.8 0.00 0.00 0.00 86 1013.6
20260504130805 9 182 1.6 1.6 0.00 0.00 0.00 89 1013.4
20260504130301 9 186 1.6 1.6 0.00 0.00 0.00 89 1013.4
20260504120225 10 183 1.6 3.2 0.00 0.00 0.00 88 1013.3
20260504110652 10 190 0.0 1.6 0.00 0.00 0.00 86 1013.7
20260504110149 10 157 3.2 3.2 0.00 0.00 0.00 86 1013.7
20260504100615 9 200 0.0 0.0 0.00 0.00 0.00 93 1013.8
20260504100113 9 197 0.0 1.6 0.00 0.00 0.00 93 1013.8
20260504081506 10 200 0.0 0.0 0.00 0.00 0.00 92 1014.8
20260504081001 10 188 0.0 0.0 0.00 0.00 0.00 91 1014.5
20260504080458 10 179 1.6 1.6 0.00 0.00 0.00 92 1014.6
20260504050305 11 200 0.0 0.0 0.00 0.00 0.00 90 1014.8
20260504045803 11 201 0.0 0.0 0.00 0.00 0.00 91 1014.5
20260504045304 11 200 0.0 0.0 0.00 0.00 0.00 90 1014.5
20260504044800 11 200 0.0 0.0 0.00 0.00 0.00 90 1014.5
20260504044257 11 200 0.0 0.0 0.00 0.00 0.00 89 1014.5
20260504043754 11 200 0.0 0.0 0.00 0.00 0.00 89 1014.6
20260504043251 11 200 0.0 0.0 0.00 0.00 0.00 88 1014.7
20260504042749 12 201 0.0 0.0 0.00 0.00 0.00 87 1014.5
20260504042245 12 223 0.0 1.6 0.00 0.00 0.00 87 1014.4
20260504041741 12 210 1.6 1.6 0.00 0.00 0.00 87 1014.2
20260504041237 12 201 1.6 3.2 0.00 0.00 0.00 87 1013.9
20260504040733 12 208 0.0 1.6 0.00 0.00 0.00 86 1014.0
20260504040231 12 205 0.0 0.0 0.00 0.00 0.00 86 1014.3
20260504035727 12 204 0.0 1.6 0.00 0.00 0.00 86 1014.1
20260504035225 12 205 1.6 1.6 0.00 0.00 0.00 85 1013.7
20260504034722 12 207 1.6 1.6 0.00 0.00 0.00 85 1013.8
20260504034219 12 215 1.6 1.6 0.00 0.00 0.00 84 1013.5
20260504033717 13 232 1.6 3.2 0.00 0.00 0.00 84 1013.6
20260504033214 13 213 1.6 3.2 0.00 0.00 0.00 83 1013.9
20260504032711 13 200 1.6 1.6 0.00 0.00 0.00 83 1013.7
20260504032208 13 203 1.6 1.6 0.00 0.00 0.00 82 1013.4
20260504031705 13 208 1.6 1.6 0.00 0.00 0.00 82 1013.6
20260504031201 13 288 4.8 4.8 0.00 0.00 0.00 81 1013.8
20260504030657 13 240 1.6 1.6 0.00 0.00 0.00 81 1013.6
20260504030155 13 220 1.6 1.6 0.00 0.00 0.00 81 1013.6
20260504025651 13 231 3.2 3.2 0.00 0.00 0.00 80 1013.3
20260504025148 13 231 1.6 3.2 0.00 0.00 0.00 80 1013.3
20260504024646 13 271 3.2 4.8 0.00 0.00 0.00 79 1013.3
20260504024142 13 306 3.2 4.8 0.00 0.00 0.00 78 1013.1
20260504023639 13 226 4.8 4.8 0.00 0.00 0.00 78 1013.3
20260504023135 14 306 8.0 9.7 0.00 0.00 0.00 77 1013.3
20260504022631 14 266 4.8 8.0 0.00 0.00 0.00 76 1013.3
20260504022127 14 294 6.4 8.0 0.00 0.00 0.00 75 1013.3
20260504021625 15 212 1.6 1.6 0.00 0.00 0.00 74 1013.1
20260504021121 14 278 6.4 9.7 0.00 0.00 0.00 74 1013.3
20260504020619 14 300 4.8 8.0 0.00 0.00 0.00 74 1012.8
20260504020115 15 312 6.4 11.3 0.00 0.00 0.00 73 1012.9
20260504015611 15 301 6.4 9.7 0.00 0.00 0.00 71 1012.9
20260504015107 15 245 1.6 3.2 0.00 0.00 0.00 71 1012.9
20260504014603 15 272 4.8 4.8 0.00 0.00 0.00 70 1013.0
20260504014101 15 316 4.8 8.0 0.00 0.00 0.00 69 1012.9
20260504013558 16 346 8.0 11.3 0.00 0.00 0.00 66 1012.8
20260504013055 15 328 8.0 9.7 0.00 0.00 0.00 66 1012.5
20260504012552 15 276 3.2 4.8 0.00 0.00 0.00 66 1012.4
20260504012050 15 253 3.2 3.2 0.00 0.00 0.00 66 1012.7
20260504011547 15 247 6.4 9.7 0.00 0.00 0.00 66 1012.7
20260504011043 16 251 4.8 8.0 0.00 0.00 0.00 66 1012.7
20260504010539 16 262 6.4 8.0 0.00 0.00 0.00 65 1012.6
20260504010035 16 273 4.8 4.8 0.00 0.00 0.00 65 1012.8
20260504005532 16 296 4.8 4.8 0.00 0.00 0.00 64 1012.7
20260504005029 16 264 8.0 14.5 0.00 0.00 0.00 64 1012.6
20260504004527 16 255 3.2 4.8 0.00 0.00 0.00 65 1012.6
20260504004024 16 254 3.2 3.2 0.00 0.00 0.00 64 1012.4
20260504003520 16 338 6.4 9.7 0.00 0.00 0.00 64 1012.7
20260504003017 16 261 8.0 9.7 0.00 0.00 0.00 64 1012.5
20260504002514 16 289 8.0 11.3 0.00 0.00 0.00 64 1012.4
20260504002011 16 265 8.0 11.3 0.00 0.00 0.00 64 1012.6
20260504001509 16 267 4.8 4.8 0.00 0.00 0.00 62 1012.6
20260504001005 17 206 1.6 1.6 0.00 0.00 0.00 61 1012.6
20260504000502 17 327 6.4 9.7 0.00 0.00 0.00 58 1012.4
20260503235959 17 321 6.4 8.0 0.00 0.00 0.00 58 1012.3
20260503235457 17 226 4.8 8.0 0.00 0.00 0.00 57 1012.3
20260503234954 17 295 9.7 11.3 0.00 0.00 0.00 56 1012.2
20260503234452 17 6 11.3 14.5 0.00 0.00 0.00 58 1012.4
20260503233950 17 295 9.7 12.9 0.00 0.00 0.00 57 1012.1
20260503233446 17 338 6.4 9.7 0.00 0.00 0.00 57 1012.1
20260503232942 17 315 11.3 14.5 0.00 0.00 0.00 56 1012.1
20260503232439 17 204 3.2 4.8 0.00 0.00 0.00 57 1012.0
20260503231937 17 292 8.0 9.7 0.00 0.00 0.00 58 1011.9
20260503231434 17 273 6.4 11.3 0.00 0.00 0.00 56 1012.2
20260503230931 17 302 6.4 9.7 0.00 0.00 0.00 57 1012.1
20260503230427 17 269 6.4 9.7 0.00 0.00 0.00 57 1012.1
20260503225925 17 304 11.3 14.5 0.00 0.00 0.00 56 1012.2
20260503225422 17 281 4.8 4.8 0.00 0.00 0.00 57 1012.3
20260503224917 18 292 4.8 9.7 0.00 0.00 0.00 55 1012.3
20260503224414 17 268 4.8 4.8 0.00 0.00 0.00 57 1012.1
20260503223912 18 241 3.2 4.8 0.00 0.00 0.00 56 1012.4
20260503223410 19 276 3.2 4.8 0.00 0.00 0.00 54 1012.3
20260503222910 20 213 0.0 1.6 0.00 0.00 0.00 51 1012.4
20260503222409 20 230 4.8 4.8 0.00 0.00 0.00 55 1012.5
20260503221907 20 315 6.4 9.7 0.00 0.00 0.00 53 1012.3
20260503221405 18 243 8.0 14.5 0.00 0.00 0.00 57 1012.5
20260503220901 18 304 9.7 11.3 0.00 0.00 0.00 56 1012.8
20260503220358 18 221 3.2 3.2 0.00 0.00 0.00 57 1012.6
20260503215855 18 263 4.8 8.0 0.00 0.00 0.00 56 1012.5
20260503215352 18 224 1.6 3.2 0.00 0.00 0.00 59 1012.6